{"data":{"norad_id":58306,"epoch":"2026-05-24T23:43:28.401024Z","epoch_age_seconds":82872,"freshness":"FRESH","line1":"1 58306U 23174BC  26144.98852316  .00036179  00000+0  48975-3 0  9999","line2":"2 58306  97.3814 236.3917 0005109 199.7049 160.4010 15.57615100142258","mean_motion":15.576151,"eccentricity":0.0005109,"inclination_deg":97.3814,"raan_deg":236.3917,"arg_perigee_deg":199.7049,"mean_anomaly_deg":160.401,"bstar":0.00048975,"rev_number":14225,"period_min":92.449026720401,"perigee_km":391.10132233817,"apogee_km":398.02166565934,"semimajor_km":6772.6984939988,"source":"CELESTRAK","updated_at":"2026-05-25T13:38:13.300112Z"}}